Domov               UVHVVR             MKGP            O straneh              
ZDRAVSTVENO VARSTVO RASTLIN
  MREŽA AGROMET. POSTAJ
 ► PROGNOSTIČNA OBVESTILA
AGROMETEOROLOŠKI PODATKI -
ARSO
OBVLADOVANJE TVEGANJ ZARADI
NEUGODNIH VREMENSKIH RAZMER
  ► NARAVNE NESREČE
  ► SUŠA/MOČA
  ► NAMAKANJE
  ► ŽLED (gozdarstvo)
KARTOGRAFSKI PRIKAZI
SPLETNE POVEZAVE
PROJEKTI IN PUBLIKACIJE

AGROMETEOROLOŠKA MREŽA: VREMENSKE POSTAJE IN FENOLOŠKA OPAZOVANJA

Pregled podatkov za lokacijo Gabrska Gora, meteorološka postaja 38756

Pregled senzorjev na lokaciji

ID Ime Zadnja
vrednost
Datum
zadnje
spremembe
Tip
senzorja
2042 Omočenost lista (U) 0 U 20.6.2018 16:30 A730WET
2045 Padavine (mm) 0 mm 20.6.2018 16:30 Rain-O-Matic
2065 Relativna vlaga 2 m (% RH) 47,77 % RH 20.6.2018 16:30 50YA
2064 Temperatura 2 m (°C) 26,42 °C 20.6.2018 16:30 50YA

Pregled podatkov zadnjih 24 ur

Zap.
št.
Datum in čas Gabrska Gora
Omočenost
lista
Padavine Relativna
vlaga
2
m
Temperatura
2
m
1 20.6.2018 17:00
2 20.6.2018 16:30
3 20.6.2018 16:00
4 20.6.2018 15:30 0 0 47,8 26,4
5 20.6.2018 15:00 0 0 47,8 26,4
6 20.6.2018 14:30 0 0 46,7 26,2
7 20.6.2018 14:00 0 0 47,5 25,9
8 20.6.2018 13:30 0 0 48,9 25,8
9 20.6.2018 13:00 0 0 49,4 25,3
10 20.6.2018 12:30 0 0 52,3 25
11 20.6.2018 12:00 0 0 52,6 24,5
12 20.6.2018 11:30 0 0 57,1 23,5
13 20.6.2018 11:00 0 0 57,5 23,2
14 20.6.2018 10:30 0 0 58,4 23,4
15 20.6.2018 10:00 0 0 64,7 21,3
16 20.6.2018 09:30 0 0 64,2 20,7
17 20.6.2018 09:00 0 0 66,4 19,9
18 20.6.2018 08:30 0 0 66,3 19,8
19 20.6.2018 08:00 0 0 63,8 20,2
20 20.6.2018 07:30 0 0 67 20
21 20.6.2018 07:00 0 0 71,1 19,3
22 20.6.2018 06:30 0 0 76,2 18,1
23 20.6.2018 06:00 0 0 71,6 17,7
24 20.6.2018 05:30 0 0 66,3 17,9
25 20.6.2018 05:00 0 0 67,2 17,5
26 20.6.2018 04:30 0 0 64,8 17,8
27 20.6.2018 04:00 0 0 60,3 18,8
28 20.6.2018 03:30 0 0 61,6 18,7
29 20.6.2018 03:00 0 0 59,7 19,3
30 20.6.2018 02:30 0 0 59,2 19,6
31 20.6.2018 02:00 0 0 61,4 19,3
32 20.6.2018 01:30 0 0 62 19,2
33 20.6.2018 01:00 0 0 64,4 18,8
34 20.6.2018 00:30 0 0 64,8 18,7
35 20.6.2018 00:00 0 0 60,7 19,6
36 19.6.2018 23:30 0 0 58,6 20,3
37 19.6.2018 23:00 0 0 58,5 20,3
38 19.6.2018 22:30 0 0 58 20,4
39 19.6.2018 22:00 0 0 57,5 20,6
40 19.6.2018 21:30 0 0 57,3 20,7
41 19.6.2018 21:00 0 0 57 21
42 19.6.2018 20:30 0 0 57,7 21,2
43 19.6.2018 20:00 0 0 57,8 21,5
44 19.6.2018 19:30 0 0 56,7 21,9
45 19.6.2018 19:00 0 0 53,9 22,6
46 19.6.2018 18:30 0 0 50,7 23,6
47 19.6.2018 18:00 0 0 45 24,6
48 19.6.2018 17:30 0 0 42,8 25,1
© 2011 Ministrstvo za kmetijstvo, gozdarstvo in prehrano. Vse pravice pridržane.